FW4125 Weather Reports


Display with metric or nautical units.
time (UTC)temp
F
wind
direction
speed
MPH
gust
MPH
rain 1hr
in
rain 24hr
in
rain mn
in
humidity
%
barometer
mb
20260510104517 70 108 0.0 0.0 0.00 0.00 0.00 56
20260510103019 70 100 0.0 5.0 0.00 0.00 0.00 55
20260510101517 70 85 1.0 3.0 0.00 0.00 0.00 56
20260510100017 71 69 1.0 4.0 0.00 0.00 0.00 57
20260510094519 71 77 0.0 3.0 0.00 0.00 0.00 56
20260510093016 72 60 1.0 5.0 0.00 0.00 0.00 57
20260510091515 74 59 1.0 5.0 0.00 0.00 0.00 59
20260510090014 75 4 0.0 2.0 0.00 0.00 0.00 61
20260510084515 75 117 0.0 2.0 0.00 0.00 0.00 60
20260510083020 75 117 0.0 1.0 0.00 0.00 0.00 59
20260510081534 75 125 0.0 3.0 0.00 0.00 0.00 58
20260510080019 75 223 0.0 0.0 0.00 0.00 0.00 56
20260510074521 75 223 0.0 0.0 0.00 0.00 0.00 55
20260510073022 75 223 0.0 0.0 0.00 0.00 0.00 55
20260510071522 76 223 0.0 0.0 0.00 0.00 0.00 55
20260510070025 76 223 0.0 1.0 0.00 0.00 0.00 55
20260510064545 76 223 0.0 2.0 0.00 0.00 0.00 55
20260510063038 76 56 0.0 4.0 0.00 0.00 0.00 54
20260510061534 76 56 0.0 4.0 0.00 0.00 0.00 54
20260510060041 76 171 0.0 2.0 0.00 0.00 0.00 53
20260510054537 76 171 0.0 1.0 0.00 0.00 0.00 52
20260510053043 76 171 0.0 2.0 0.00 0.00 0.00 52
20260510051548 76 171 0.0 0.0 0.00 0.00 0.00 51
20260510050050 76 171 0.0 2.0 0.00 0.00 0.00 51
20260510044556 76 171 0.0 4.0 0.00 0.00 0.00 50
20260510043051 76 175 0.0 2.0 0.00 0.00 0.00 50
20260510041549 76 158 0.0 3.0 0.00 0.00 0.00 50
20260510040053 76 19 0.0 1.0 0.00 0.00 0.00 50
20260510034557 76 18 0.0 0.0 0.00 0.00 0.00 48
20260510033108 77 18 0.0 0.0 0.00 0.00 0.00 47
20260510031556 78 18 0.0 0.0 0.00 0.00 0.00 46
20260510030111 78 18 0.0 0.0 0.00 0.00 0.00 46
20260510024600 79 18 0.0 0.0 0.00 0.00 0.00 45
20260510023003 79 18 0.0 0.0 0.00 0.00 0.00 44
20260510021505 80 18 0.0 0.0 0.00 0.00 0.00 43
20260510020004 81 18 0.0 0.0 0.00 0.00 0.00 44
20260510014508 82 18 0.0 0.0 0.00 0.00 0.00 43
20260510013009 83 35 0.0 0.0 0.00 0.00 0.00 40
20260510011518 84 35 0.0 0.0 0.00 0.00 0.00 38
20260510010020 86 34 0.0 0.0 0.00 0.00 0.00 37
20260510004518 87 35 0.0 0.0 0.00 0.00 0.00 34
20260510003017 88 34 0.0 0.0 0.00 0.00 0.00 33
20260510001520 89 52 0.0 0.0 0.00 0.00 0.00 31
20260510000020 90 52 0.0 0.0 0.00 0.00 0.00 32
20260509234530 90 52 0.0 0.0 0.00 0.00 0.00 32
20260509233024 91 52 0.0 1.0 0.00 0.00 0.00 32
20260509231532 91 51 0.0 2.0 0.00 0.00 0.00 31
20260509230038 91 51 0.0 0.0 0.00 0.00 0.00 30
20260509224539 91 52 0.0 0.0 0.00 0.00 0.00 30
20260509223046 91 52 0.0 2.0 0.00 0.00 0.00 31
20260509221548 91 52 0.0 0.0 0.00 0.00 0.00 32
20260509220048 91 52 0.0 3.0 0.00 0.00 0.00 32
20260509214553 91 81 0.0 2.0 0.00 0.00 0.00 34
20260509213050 91 90 0.0 2.0 0.00 0.00 0.00 32
20260509211602 91 108 0.0 3.0 0.00 0.00 0.00 34
20260509210059 91 112 0.0 3.0 0.00 0.00 0.00 33
20260509204601 91 234 0.0 0.0 0.00 0.00 0.00 35
20260509203001 91 230 0.0 0.0 0.00 0.00 0.00 35
20260509201505 91 218 0.0 3.0 0.00 0.00 0.00 35
20260509200007 91 178 0.0 2.0 0.00 0.00 0.00 36
20260509194502 90 226 0.0 3.0 0.00 0.00 0.00 34
20260509193117 89 44 1.0 4.0 0.00 0.00 0.00 35
20260509191601 89 45 0.0 2.0 0.00 0.00 0.00 35
20260509190006 89 341 0.0 4.0 0.00 0.00 0.00 37
20260509184502 89 289 0.0 3.0 0.00 0.00 0.00 36
20260509183102 87 69 0.0 2.0 0.00 0.00 0.00 38
20260509181501 86 141 0.0 3.0 0.00 0.00 0.00 39
20260509180100 85 312 0.0 3.0 0.00 0.00 0.00 41
20260509174602 84 262 0.0 3.0 0.00 0.00 0.00 41
20260509173106 83 277 0.0 3.0 0.00 0.00 0.00 43
20260509171618 82 275 0.0 3.0 0.00 0.00 0.00 44
20260509170051 81 32 0.0 5.0 0.00 0.00 0.00 45
20260509164550 80 342 1.0 5.0 0.00 0.00 0.00 46
20260509163058 79 271 1.0 7.0 0.00 0.00 0.00 47
20260509161552 78 256 2.0 5.0 0.00 0.00 0.00 48
20260509160047 77 29 1.0 3.0 0.00 0.00 0.00 49
20260509154550 77 27 0.0 4.0 0.00 0.00 0.00 50
20260509153049 75 274 1.0 5.0 0.00 0.00 0.00 51
20260509151541 74 329 1.0 4.0 0.00 0.00 0.00 53
20260509150050 73 80 1.0 3.0 0.00 0.00 0.00 57
20260509144627 72 273 1.0 5.0 0.00 0.00 0.00 59
20260509143047 71 272 0.0 3.0 0.00 0.00 0.00 63
20260509141546 71 312 0.0 2.0 0.00 0.00 0.00 66
20260509140046 70 279 0.0 4.0 0.00 0.00 0.00 67
20260509134547 70 339 0.0 3.0 0.00 0.00 0.00 68
20260509133051 70 165 0.0 4.0 0.00 0.00 0.00 68
20260509131547 69 273 1.0 4.0 0.00 0.00 0.00 68
20260509130059 69 299 0.0 3.0 0.00 0.00 0.00 67
20260509124608 69 301 0.0 4.0 0.00 0.00 0.00 67
20260509123102 68 309 1.0 3.0 0.00 0.00 0.00 67
20260509121606 68 268 0.0 2.0 0.00 0.00 0.00 66
20260509120007 68 266 1.0 3.0 0.00 0.00 0.00 66
20260509114505 68 283 0.0 4.0 0.00 0.00 0.00 65
20260509113008 68 282 1.0 5.0 0.00 0.00 0.00 65
20260509111511 67 278 1.0 4.0 0.00 0.00 0.00 65
20260509110012 68 306 0.0 4.0 0.00 0.00 0.00 65